This is the latest recevied weather packets stored in our database for station/object AI5ON. If no packets are shown the sender has not sent any weather packets the latest 10 day(s).
| Time | Temp. | Humidity | Pressure | Rain* | Wind** | Luminosity | Snow |
|---|---|---|---|---|---|---|---|
| 1787875627 | 28.89° C | 77% | 1013.8 hPa | 0 mm | - | 35 W/m² | - |
| 1787875332 | 29.44° C | 76% | 1012.9 hPa | 0 mm | - | 44 W/m² | - |
| 1787875030 | 30° C | 74% | 1012.9 hPa | 0 mm | - | 50 W/m² | - |
| 1787874726 | 30° C | 72% | 1012.5 hPa | 0 mm | - | 62 W/m² | - |
| 1787874424 | 30° C | 73% | 1012.5 hPa | 0 mm | - | 82 W/m² | - |
| 1787874119 | 30° C | 74% | 1012.8 hPa | 0 mm | - | 95 W/m² | - |
| 1787873819 | 29.44° C | 78% | 1012.7 hPa | 0 mm | - | 105 W/m² | - |
| 1787873514 | 28.89° C | 78% | 1012.8 hPa | 0 mm | - | 109 W/m² | - |
| 1787873209 | 28.89° C | 77% | 1012.9 hPa | 0 mm | - | 72 W/m² | - |
| 1787872907 | 28.89° C | 79% | 1013 hPa | 0 mm | - | 66 W/m² | - |
| 1787872603 | 29.44° C | 78% | 1012.9 hPa | 0 mm | - | 64 W/m² | - |
| 1787872303 | 29.44° C | 76% | 1013.1 hPa | 0 mm | - | 71 W/m² | - |
| 1787871998 | 29.44° C | 72% | 1013 hPa | 0 mm | - | 89 W/m² | - |
| 1787871694 | 30° C | 71% | 1012.9 hPa | 0 mm | - | 89 W/m² | - |
| 1787871389 | 30° C | 73% | 1013 hPa | 0 mm | - | 104 W/m² | - |
| 1787871084 | 30° C | 72% | 1013.2 hPa | 0 mm | - | 107 W/m² | - |
| 1787870783 | 30° C | 73% | 1013.2 hPa | 0 mm | - | 107 W/m² | - |
| 1787870479 | 30° C | 73% | 1013.1 hPa | 0 mm | - | 94 W/m² | - |
| 1787870174 | 30° C | 69% | 1013.1 hPa | 0 mm | - | 92 W/m² | - |
| 1787869874 | 30.56° C | 69% | 1013.2 hPa | 0 mm | - | 116 W/m² | - |
| 1787869572 | 31.11° C | 67% | 1013.1 hPa | 0 mm | - | 98 W/m² | - |
| 1787869268 | 31.11° C | 65% | 1013.2 hPa | 0 mm | - | 170 W/m² | - |
| 1787868966 | 31.11° C | 67% | 1013.1 hPa | 0 mm | - | 325 W/m² | - |
| 1787868661 | 31.11° C | 67% | 1013.1 hPa | 0 mm | - | 446 W/m² | - |
| 1787868359 | 30.56° C | 67% | 1013.3 hPa | 0 mm | - | 482 W/m² | - |
* Rain latest hour (hover to see other rain measurements)
** Current wind speed in m/s (hover to see current wind gust speed)